Time,TemperatureF,DewpointF,PressureIn,WindDirection,WindDirectionDegrees,WindSpeedMPH,WindSpeedGustMPH,Humidity,HourlyPrecipIn,Conditions,Clouds,dailyrainin,SoftwareType,DateUTC
2013-11-09 00:13:00,32.0,30.0,30.20,NW,324,0.0,-999.0,94,-99.99,,,-99.99,,2013-11-09 05:13:00,
2013-11-09 00:23:00,32.0,30.0,30.20,North,360,1.0,-999.0,94,-99.99,,,-99.99,,2013-11-09 05:23:00,
2013-11-09 00:43:00,33.0,31.0,30.19,North,360,1.0,-999.0,94,-99.99,,,-99.99,,2013-11-09 05:43:00,
2013-11-09 00:53:00,33.0,31.0,30.18,North,360,2.0,-999.0,93,-99.99,,,-99.99,,2013-11-09 05:53:00,
2013-11-09 01:13:00,33.0,31.0,30.17,North,360,0.0,-999.0,93,-99.99,,,-99.99,,2013-11-09 06:13:00,
2013-11-09 01:23:00,34.0,32.0,30.16,ESE,121,3.0,-999.0,94,-99.99,,,-99.99,,2013-11-09 06:23:00,
2013-11-09 01:43:00,34.0,32.0,30.16,ESE,123,2.0,-999.0,92,-99.99,,,-99.99,,2013-11-09 06:43:00,
2013-11-09 01:54:00,34.0,32.0,30.16,ESE,123,0.0,-999.0,92,-99.99,,,-99.99,,2013-11-09 06:54:00,
2013-11-09 02:12:00,34.0,32.0,30.16,ESE,123,2.0,-999.0,91,-99.99,,,-99.99,,2013-11-09 07:12:00,
2013-11-09 02:22:00,34.0,32.0,30.16,ESE,123,2.0,-999.0,91,-99.99,,,-99.99,,2013-11-09 07:22:00,
2013-11-09 02:42:00,35.0,32.0,30.15,SSE,150,4.0,-999.0,89,-99.99,,,-99.99,,2013-11-09 07:42:00,
2013-11-09 02:52:00,35.0,32.0,30.15,SSE,159,2.0,-999.0,89,-99.99,,,-99.99,,2013-11-09 07:52:00,
2013-11-09 03:12:00,35.0,32.0,30.14,South,184,3.0,-999.0,89,-99.99,,,-99.99,,2013-11-09 08:12:00,
2013-11-09 03:22:00,35.0,32.0,30.13,South,184,4.0,-999.0,89,-99.99,,,-99.99,,2013-11-09 08:22:00,
2013-11-09 03:42:00,35.0,32.0,30.12,SSE,152,2.0,-999.0,89,-99.99,,,-99.99,,2013-11-09 08:42:00,
2013-11-09 03:52:00,35.0,33.0,30.11,SE,127,4.0,-999.0,91,-99.99,,,-99.99,,2013-11-09 08:52:00,
2013-11-09 04:12:00,34.0,32.0,30.09,SE,129,4.0,-999.0,91,-99.99,,,-99.99,,2013-11-09 09:12:00,
2013-11-09 04:22:00,34.0,32.0,30.07,ESE,110,4.0,-999.0,92,-99.99,,,-99.99,,2013-11-09 09:22:00,
2013-11-09 04:43:00,34.0,32.0,30.06,East,94,4.0,-999.0,92,-99.99,,,-99.99,,2013-11-09 09:43:00,
2013-11-09 04:53:00,34.0,32.0,30.05,ESE,121,6.0,-999.0,93,-99.99,,,-99.99,,2013-11-09 09:53:00,
2013-11-09 05:13:00,34.0,32.0,30.04,ESE,123,6.0,-999.0,93,-99.99,,,-99.99,,2013-11-09 10:13:00,
2013-11-09 05:23:00,34.0,32.0,30.03,SE,131,6.0,-999.0,94,-99.99,,,-99.99,,2013-11-09 10:23:00,
2013-11-09 05:42:00,34.0,32.0,30.02,SE,124,6.0,-999.0,94,-99.99,,,-99.99,,2013-11-09 10:42:00,
2013-11-09 05:52:00,34.0,32.0,30.02,SE,146,4.0,-999.0,94,-99.99,,,-99.99,,2013-11-09 10:52:00,
2013-11-09 06:12:00,34.0,32.0,30.01,ESE,115,5.0,-999.0,94,-99.99,,,-99.99,,2013-11-09 11:12:00,
2013-11-09 06:22:00,34.0,33.0,29.98,ESE,103,5.0,-999.0,95,-99.99,,,-99.99,,2013-11-09 11:22:00,
2013-11-09 06:42:00,34.0,33.0,29.96,ENE,71,6.0,-999.0,95,-99.99,,,-99.99,,2013-11-09 11:42:00,
2013-11-09 06:52:00,34.0,33.0,29.96,SE,132,6.0,-999.0,95,-99.99,,,-99.99,,2013-11-09 11:52:00,
2013-11-09 07:12:00,34.0,33.0,29.95,SE,135,7.0,-999.0,95,-99.99,,,-99.99,,2013-11-09 12:12:00,
2013-11-09 07:22:00,35.0,34.0,29.94,ESE,109,5.0,-999.0,95,-99.99,,,-99.99,,2013-11-09 12:22:00,
2013-11-09 07:42:00,36.0,35.0,29.93,ESE,122,6.0,-999.0,95,-99.99,,,-99.99,,2013-11-09 12:42:00,
2013-11-09 07:52:00,36.0,35.0,29.93,ESE,116,5.0,-999.0,95,-99.99,,,-99.99,,2013-11-09 12:52:00,
2013-11-09 08:11:00,37.0,36.0,29.92,SE,125,8.0,-999.0,95,-99.99,,,-99.99,,2013-11-09 13:11:00,
2013-11-09 08:22:00,38.0,37.0,29.91,SSE,149,11.0,-999.0,95,-99.99,,,-99.99,,2013-11-09 13:22:00,
2013-11-09 08:42:00,38.0,36.0,29.90,SE,140,12.0,-999.0,94,-99.99,,,-99.99,,2013-11-09 13:42:00,
2013-11-09 08:52:00,38.0,36.0,29.90,SSE,165,10.0,-999.0,94,-99.99,,,-99.99,,2013-11-09 13:52:00,
2013-11-09 09:12:00,38.0,36.0,29.89,SSE,155,12.0,-999.0,93,-99.99,,,-99.99,,2013-11-09 14:12:00,
2013-11-09 09:22:00,37.0,35.0,29.88,SE,146,9.0,-999.0,93,-99.99,,,-99.99,,2013-11-09 14:22:00,
2013-11-09 09:42:00,37.0,35.0,29.87,SSE,150,11.0,-999.0,94,-99.99,,,-99.99,,2013-11-09 14:42:00,
2013-11-09 09:52:00,37.0,35.0,29.86,SE,146,13.0,-999.0,94,-99.99,,,-99.99,,2013-11-09 14:52:00,
2013-11-09 10:11:00,37.0,35.0,29.85,SSE,157,13.0,-999.0,93,-99.99,,,-99.99,,2013-11-09 15:11:00,
2013-11-09 10:22:00,37.0,35.0,29.83,SE,134,11.0,-999.0,93,-99.99,,,-99.99,,2013-11-09 15:22:00,
2013-11-09 10:44:00,37.0,35.0,29.83,SE,134,12.0,-999.0,94,-99.99,,,-99.99,,2013-11-09 15:44:00,
2013-11-09 10:53:00,38.0,36.0,29.82,SSE,150,12.0,-999.0,94,-99.99,,,-99.99,,2013-11-09 15:53:00,
2013-11-09 11:12:00,38.0,36.0,29.80,SE,138,10.0,-999.0,94,-99.99,,,-99.99,,2013-11-09 16:12:00,
2013-11-09 11:24:00,38.0,36.0,29.80,SE,142,10.0,-999.0,94,-99.99,,,-99.99,,2013-11-09 16:24:00,
2013-11-09 11:43:00,38.0,36.0,29.79,SE,144,10.0,-999.0,94,-99.99,,,-99.99,,2013-11-09 16:43:00,
2013-11-09 11:52:00,39.0,37.0,29.78,SSE,149,10.0,-999.0,94,-99.99,,,-99.99,,2013-11-09 16:52:00,
2013-11-09 12:13:00,39.0,37.0,29.77,SE,146,9.0,-999.0,94,-99.99,,,-99.99,,2013-11-09 17:13:00,
2013-11-09 12:24:00,39.0,37.0,29.75,SE,135,10.0,-999.0,94,-99.99,,,-99.99,,2013-11-09 17:24:00,
2013-11-09 12:43:00,39.0,37.0,29.74,SE,140,8.0,-999.0,94,-99.99,,,-99.99,,2013-11-09 17:43:00,
2013-11-09 12:52:00,39.0,37.0,29.73,SSE,161,8.0,-999.0,94,-99.99,,,-99.99,,2013-11-09 17:52:00,
2013-11-09 13:12:00,39.0,37.0,29.72,SE,128,7.0,-999.0,94,-99.99,,,-99.99,,2013-11-09 18:12:00,
2013-11-09 13:23:00,39.0,37.0,29.72,SE,128,7.0,-999.0,94,-99.99,,,-99.99,,2013-11-09 18:23:00,
2013-11-09 13:42:00,39.0,37.0,29.71,SE,126,6.0,-999.0,94,-99.99,,,-99.99,,2013-11-09 18:42:00,
2013-11-09 13:52:00,39.0,37.0,29.70,SE,138,7.0,-999.0,94,-99.99,,,-99.99,,2013-11-09 18:52:00,
2013-11-09 14:12:00,40.0,39.0,29.70,SE,143,7.0,-999.0,95,-99.99,,,-99.99,,2013-11-09 19:12:00,
2013-11-09 14:23:00,40.0,39.0,29.70,SSE,155,6.0,-999.0,95,-99.99,,,-99.99,,2013-11-09 19:23:00,
2013-11-09 14:42:00,40.0,39.0,29.69,South,174,6.0,-999.0,95,-99.99,,,-99.99,,2013-11-09 19:42:00,
2013-11-09 14:52:00,40.0,39.0,29.68,SSE,168,5.0,-999.0,95,-99.99,,,-99.99,,2013-11-09 19:52:00,
2013-11-09 15:13:00,40.0,39.0,29.68,South,169,4.0,-999.0,95,-99.99,,,-99.99,,2013-11-09 20:13:00,
2013-11-09 15:22:00,40.0,39.0,29.68,South,172,3.0,-999.0,95,-99.99,,,-99.99,,2013-11-09 20:22:00,
2013-11-09 15:42:00,40.0,39.0,29.68,South,172,3.0,-999.0,95,-99.99,,,-99.99,,2013-11-09 20:42:00,
2013-11-09 15:52:00,40.0,39.0,29.68,South,172,3.0,-999.0,95,-99.99,,,-99.99,,2013-11-09 20:52:00,
2013-11-09 16:12:00,41.0,40.0,29.68,SSW,206,4.0,-999.0,95,-99.99,,,-99.99,,2013-11-09 21:12:00,
2013-11-09 16:22:00,41.0,40.0,29.69,SW,214,5.0,-999.0,96,-99.99,,,-99.99,,2013-11-09 21:22:00,
2013-11-09 16:44:00,41.0,40.0,29.69,SW,227,2.0,-999.0,95,-99.99,,,-99.99,,2013-11-09 21:44:00,
2013-11-09 16:54:00,41.0,40.0,29.69,SW,227,2.0,-999.0,95,-99.99,,,-99.99,,2013-11-09 21:54:00,
2013-11-09 17:13:00,41.0,40.0,29.70,West,259,3.0,-999.0,95,-99.99,,,-99.99,,2013-11-09 22:13:00,
2013-11-09 17:24:00,41.0,40.0,29.70,WSW,258,4.0,-999.0,95,-99.99,,,-99.99,,2013-11-09 22:24:00,
2013-11-09 17:43:00,41.0,40.0,29.70,WSW,237,4.0,-999.0,95,-99.99,,,-99.99,,2013-11-09 22:43:00,
2013-11-09 17:54:00,41.0,40.0,29.71,West,263,5.0,-999.0,95,-99.99,,,-99.99,,2013-11-09 22:54:00,
2013-11-09 18:13:00,40.0,39.0,29.72,West,272,5.0,-999.0,95,-99.99,,,-99.99,,2013-11-09 23:13:00,
2013-11-09 18:22:00,40.0,39.0,29.72,NW,311,5.0,-999.0,95,-99.99,,,-99.99,,2013-11-09 23:22:00,
2013-11-09 18:42:00,40.0,39.0,29.72,WSW,244,4.0,-999.0,95,-99.99,,,-99.99,,2013-11-09 23:42:00,
2013-11-09 18:53:00,40.0,38.0,29.73,WNW,286,5.0,-999.0,94,-99.99,,,-99.99,,2013-11-09 23:53:00,
2013-11-09 19:12:00,40.0,38.0,29.73,WNW,288,6.0,-999.0,94,-99.99,,,-99.99,,2013-11-10 00:12:00,
2013-11-09 19:22:00,40.0,38.0,29.74,WSW,244,5.0,-999.0,94,-99.99,,,-99.99,,2013-11-10 00:22:00,
2013-11-09 19:32:00,40.0,38.0,29.74,WSW,244,5.0,-999.0,94,-99.99,,,-99.99,,2013-11-10 00:32:00,
2013-11-09 19:42:00,40.0,38.0,29.74,WSW,244,5.0,-999.0,94,-99.99,,,-99.99,,2013-11-10 00:42:00,
2013-11-09 19:52:00,40.0,38.0,29.74,West,273,6.0,-999.0,93,-99.99,,,-99.99,,2013-11-10 00:52:00,
2013-11-09 20:12:00,39.0,37.0,29.74,WSW,246,8.0,-999.0,93,-99.99,,,-99.99,,2013-11-10 01:12:00,
2013-11-09 20:22:00,39.0,37.0,29.74,WSW,246,8.0,-999.0,93,-99.99,,,-99.99,,2013-11-10 01:22:00,
2013-11-09 20:42:00,39.0,37.0,29.74,WSW,256,8.0,-999.0,93,-99.99,,,-99.99,,2013-11-10 01:42:00,
2013-11-09 20:52:00,39.0,37.0,29.74,WSW,255,6.0,-999.0,93,-99.99,,,-99.99,,2013-11-10 01:52:00,
2013-11-09 21:12:00,39.0,37.0,29.74,WSW,253,8.0,-999.0,93,-99.99,,,-99.99,,2013-11-10 02:12:00,
2013-11-09 21:22:00,39.0,37.0,29.74,WSW,240,7.0,-999.0,93,-99.99,,,-99.99,,2013-11-10 02:22:00,
2013-11-09 21:42:00,39.0,37.0,29.75,WSW,255,8.0,-999.0,93,-99.99,,,-99.99,,2013-11-10 02:42:00,
2013-11-09 21:52:00,39.0,37.0,29.75,WSW,252,9.0,-999.0,93,-99.99,,,-99.99,,2013-11-10 02:52:00,
2013-11-09 22:12:00,38.0,36.0,29.75,SW,233,9.0,-999.0,93,-99.99,,,-99.99,,2013-11-10 03:12:00,
2013-11-09 22:22:00,38.0,36.0,29.75,WSW,255,8.0,-999.0,93,-99.99,,,-99.99,,2013-11-10 03:22:00,
2013-11-09 22:44:00,38.0,36.0,29.75,WSW,240,8.0,-999.0,93,-99.99,,,-99.99,,2013-11-10 03:44:00,
2013-11-09 22:54:00,38.0,36.0,29.74,WSW,240,7.0,-999.0,93,-99.99,,,-99.99,,2013-11-10 03:54:00,
2013-11-09 23:02:00,-999.0,-99.9,29.74,WSW,255,8.0,-999.0,-999,-99.99,,,-99.99,,2013-11-10 04:02:00,
2013-11-09 23:14:00,38.0,36.0,29.74,WSW,255,8.0,-999.0,93,-99.99,,,-99.99,,2013-11-10 04:14:00,
2013-11-09 23:23:00,38.0,36.0,29.74,WSW,244,8.0,-999.0,93,-99.99,,,-99.99,,2013-11-10 04:23:00,
2013-11-09 23:43:00,38.0,36.0,29.73,WSW,238,8.0,-999.0,93,-99.99,,,-99.99,,2013-11-10 04:43:00,
2013-11-09 23:52:00,38.0,36.0,29.73,WSW,242,8.0,-999.0,93,-99.99,,,-99.99,,2013-11-10 04:52:00,